Terug naar catalogus

STARLINK-34860

ActiefCommunicatieVLEO
NORAD 65357·PAYLOAD·🇺🇸 United States

Gelanceerd Aug 28, 2025 vanaf Cape Canaveral Space Force Station

Loading…

Volgende Passages (komende 24 uur)

TLE

VersSource: CelesTrak SupGP

Epoch: Sep 14, 2026, 22:24 UTC

1 65357C 25190G   26257.93381944 -.00002846  00000+0 -84177-4 0  2575
2 65357  53.1591   5.9503 0001466  88.9847 306.4288 15.34355994    15

Volg STARLINK-34860 in realtime met AllMySat

Download on the App Store